EW2730 Weather Reports


Display with metric or nautical units.
time (UTC)temp
F
wind
direction
speed
MPH
gust
MPH
rain 1hr
in
rain 24hr
in
rain mn
in
humidity
%
barometer
mb
20180422201034 55 332 1.0 9.0 0.00 0.00 0.00 32
20180422195529 56 335 1.0 6.0 0.00 0.00 0.00 36
20180422194026 55 346 3.0 8.0 0.00 0.00 0.00 36
20180422192517 56 355 2.0 6.0 0.00 0.00 0.00 39
20180422191019 55 22 1.0 5.0 0.00 0.00 0.00 36
20180422185511 54 336 2.0 6.0 0.00 0.00 0.00 41
20180422184007 53 11 3.0 5.0 0.00 0.00 0.00 37
20180422182503 53 17 2.0 6.0 0.00 0.00 0.00 38
20180422181000 54 355 2.0 8.0 0.00 0.00 0.00 42
20180422175454 54 329 1.0 7.0 0.00 0.00 0.00 38
20180422173948 53 355 1.0 5.0 0.00 0.00 0.00 38
20180422172446 53 30 1.0 7.0 0.00 0.00 0.00 44
20180422170944 53 13 1.0 7.0 0.00 0.00 0.00 40
20180422165441 53 15 2.0 7.0 0.00 0.00 0.00 41
20180422163936 52 346 1.0 8.0 0.00 0.00 0.00 42
20180422162431 51 296 2.0 8.0 0.00 0.00 0.00 38
20180422160926 51 269 1.0 6.0 0.00 0.00 0.00 41
20180422155425 51 290 2.0 9.0 0.00 0.00 0.00 40
20180422153916 51 304 3.0 8.0 0.00 0.00 0.00 44
20180422152410 50 279 2.0 5.0 0.00 0.00 0.00 42
20180422150909 50 277 2.0 7.0 0.00 0.00 0.00 42
20180422145403 49 298 4.0 8.0 0.00 0.00 0.00 38
20180422143900 48 247 1.0 6.0 0.00 0.00 0.00 42
20180422142355 49 300 1.0 6.0 0.00 0.00 0.00 43
20180422140848 49 232 0.0 3.0 0.00 0.00 0.00 45
20180422135345 48 236 1.0 4.0 0.00 0.00 0.00 45
20180422133837 48 198 0.0 3.0 0.00 0.00 0.00 47
20180422132335 47 167 0.0 3.0 0.00 0.00 0.00 51
20180422130829 45 167 0.0 1.0 0.00 0.00 0.00 63
20180422125324 43 167 0.0 0.0 0.00 0.00 0.00 66
20180422123823 40 256 0.0 1.0 0.00 0.00 0.00 74
20180422122317 36 256 0.0 0.0 0.00 0.00 0.00 78
20180422120813 33 256 0.0 0.0 0.00 0.00 0.00 84
20180422115308 31 256 0.0 0.0 0.00 0.00 0.00 85
20180422113803 29 256 0.0 0.0 0.00 0.00 0.00 87
20180422112259 27 256 0.0 0.0 0.00 0.00 0.00 88
20180422110755 26 256 0.0 0.0 0.00 0.00 0.00 88
20180422105250 25 256 0.0 0.0 0.00 0.00 0.00 88
20180422103745 25 256 0.0 0.0 0.00 0.00 0.00 88
20180422102239 25 256 0.0 0.0 0.00 0.00 0.00 88
20180422100734 25 256 0.0 0.0 0.00 0.00 0.00 88
20180422095231 25 256 0.0 0.0 0.00 0.00 0.00 88
20180422093727 25 256 0.0 0.0 0.00 0.00 0.00 87
20180422092221 25 256 0.0 0.0 0.00 0.00 0.00 86
20180422090718 26 256 0.0 0.0 0.00 0.00 0.00 86
20180422085212 26 256 0.0 0.0 0.00 0.00 0.00 87
20180422083707 26 256 0.0 0.0 0.00 0.00 0.00 88
20180422082204 26 256 0.0 0.0 0.00 0.00 0.00 86
20180422080658 26 256 0.0 0.0 0.00 0.00 0.00 86
20180422075155 26 256 0.0 0.0 0.00 0.00 0.00 85
20180422073649 26 256 0.0 0.0 0.00 0.00 0.00 85
20180422072145 26 256 0.0 0.0 0.00 0.00 0.00 86
20180422070639 27 256 0.0 0.0 0.00 0.00 0.00 85
20180422065136 27 256 0.0 0.0 0.00 0.00 0.00 85
20180422063636 27 256 0.0 0.0 0.00 0.00 0.00 86
20180422062133 27 256 0.0 0.0 0.00 0.00 0.00 86
20180422060628 27 256 0.0 0.0 0.00 0.00 0.00 86
20180422055122 27 256 0.0 0.0 0.00 0.00 0.00 87
20180422053618 27 256 0.0 0.0 0.00 0.00 0.00 86
20180422052115 28 256 0.0 0.0 0.00 0.00 0.00 86
20180422050609 28 256 0.0 0.0 0.00 0.00 0.00 86
20180422045105 28 256 0.0 0.0 0.00 0.00 0.00 86
20180422043601 28 256 0.0 0.0 0.00 0.00 0.00 86
20180422042056 28 256 0.0 0.0 0.00 0.00 0.00 87
20180422040550 29 256 0.0 0.0 0.00 0.00 0.00 88
20180422035049 29 256 0.0 0.0 0.00 0.00 0.00 83
20180422033549 30 256 0.0 0.0 0.00 0.00 0.00 84
20180422032050 30 256 0.0 0.0 0.00 0.00 0.00 82
20180422030551 31 256 0.0 0.0 0.00 0.00 0.00 83
20180422025048 31 256 0.0 1.0 0.00 0.00 0.00 80
20180422023545 31 253 1.0 2.0 0.00 0.00 0.00 79
20180422022049 32 205 0.0 0.0 0.00 0.00 0.00 80
20180422020543 32 205 0.0 0.0 0.00 0.00 0.00 80
20180422015042 34 205 0.0 0.0 0.00 0.00 0.00 81
20180422013543 34 205 0.0 0.0 0.00 0.00 0.00 74
20180422012044 35 205 0.0 1.0 0.00 0.00 0.00 71
20180422010541 36 317 0.0 0.0 0.00 0.00 0.00 71
20180422005037 38 317 0.0 2.0 0.00 0.00 0.00 71
20180422003535 41 315 0.0 2.0 0.00 0.00 0.00 60
20180422002034 42 305 2.0 5.0 0.00 0.00 0.00 56
20180422000533 43 316 1.0 3.0 0.00 0.00 0.00 52
20180421235029 44 319 3.0 7.0 0.00 0.00 0.00 50
20180421233528 46 275 3.0 7.0 0.00 0.00 0.00 49
20180421232021 46 303 1.0 8.0 0.00 0.00 0.00 49
20180421230516 47 293 1.0 8.0 0.00 0.00 0.00 46
20180421225014 47 298 1.0 8.0 0.00 0.00 0.00 46
20180421223507 47 261 2.0 8.0 0.00 0.00 0.00 45
20180421222007 48 339 3.0 8.0 0.00 0.00 0.00 46
20180421220509 47 322 1.0 6.0 0.00 0.00 0.00 47
20180421215103 48 308 1.0 9.0 0.00 0.00 0.00 44
20180421213501 48 342 1.0 6.0 0.00 0.00 0.00 44
20180421211957 48 291 1.0 4.0 0.00 0.00 0.00 44
20180421210450 48 279 2.0 7.0 0.00 0.00 0.00 45
20180421204946 48 331 1.0 6.0 0.00 0.00 0.00 42
20180421203443 48 343 1.0 3.0 0.00 0.00 0.00 43
20180421201936 48 303 1.0 3.0 0.00 0.00 0.00 43